This demonstration page uses our WeatherBlox Daily Observations layout. Learn more.

Left ArrowRight Arrow

31.84235, -102.49876

Hourly Observations for November 20, 2015

Temp ( °F °C ) Dew Point ( °F °C ) Humidity (%) Winds ( mph kmh ) Pressure ( in mb ) Visibility ( mi km ) Precip ( " mm )
12:53 am 00:53 Clear 40 4.4 34 1.1 79 79 ENE 7 11 30.10 1019 10 16 0.00 0.00
1:53 am 01:53 Clear 41 5 34 1.1 76 76 Calm 30.08 1019 10 16 0.00 0.00
2:53 am 02:53 Clear 39 3.9 33 0.6 79 79 Calm 30.06 1018 10 16 0.00 0.00
3:53 am 03:53 Clear 38 3.3 32 0 79 79 Calm 30.03 1017 10 16 0.00 0.00
4:53 am 04:53 Clear 37 2.8 32 0 82 82 N 3 6 30.01 1016 10 16 0.00 0.00
5:53 am 05:53 Clear 37 2.8 32 0 82 82 N 3 6 30.01 1016 10 16 0.00 0.00
6:53 am 06:53 Clear 37 2.8 32 0 82 82 NNE 6 9 30.01 1016 10 16 0.00 0.00
7:53 am 07:53 Sunny 39 3.9 34 1.1 82 82 NNE 8 13 30.03 1017 10 16 0.00 0.00
8:53 am 08:53 Sunny 47 8.3 39 3.9 74 74 SE 5 7 30.01 1016 10 16 0.00 0.00
9:53 am 09:53 Sunny 53 11.7 39 3.9 59 59 S 8 13 30.00 1016 10 16 0.00 0.00
10:53 am 10:53 Sunny 61 16.1 38 3.3 43 43 S 16 26 29.98 1015 10 16 0.00 0.00
11:53 am 11:53 Sunny 64 17.8 37 2.8 37 37 SSW 14 22 29.95 1014 10 16 0.00 0.00
12:53 pm 12:53 Sunny 67 19.4 36 2.2 32 32 SSW 14 22 29.91 1013 10 16 0.00 0.00
1:53 pm 13:53 Sunny 70 21.1 34 1.1 27 27 SW 14 22 29.87 1011 10 16 0.00 0.00
2:53 pm 14:53 Sunny 71 21.7 33 0.6 25 25 SSW 14 22 29.85 1011 10 16 0.00 0.00
3:53 pm 15:53 Sunny 73 22.8 30 -1.1 20 20 WSW 13 20 29.83 1010 10 16 0.00 0.00
4:53 pm 16:53 Sunny 72 22.2 31 -0.6 22 22 WSW 7 11 29.83 1010 10 16 0.00 0.00
5:53 pm 17:53 Clear 66 18.9 33 0.6 29 29 SW 6 9 29.83 1010 10 16 0.00 0.00
6:53 pm 18:53 Clear 63 17.2 33 0.6 33 33 WSW 5 7 29.86 1011 10 16 0.00 0.00
7:53 pm 19:53 Clear 57 13.9 35 1.7 44 44 S 9 15 29.86 1011 10 16 0.00 0.00
8:53 pm 20:53 Clear 59 15 40 4.4 49 49 S 6 9 29.87 1012 10 16 0.00 0.00
9:53 pm 21:53 Clear 55 12.8 41 5 59 59 SW 5 7 29.88 1012 10 16 0.00 0.00
10:53 pm 22:53 Clear 55 12.8 45 7.2 69 69 SW 7 11 29.89 1012 10 16 0.00 0.00
11:53 pm 23:53 Clear 53 11.7 48 8.9 83 83 WSW 6 9 29.90 1013 10 16 0.00 0.00

Powered by AerisWeather